Saguache, CO

6:15 PM MST on December 13, 2017 (GMT -0700)
Saguache

Weather History for K04V - October, 2013

Change the Weather History Date:

Monday, October 7, 2013

  Actual Average (KALS) Record (KALS)
Temperature  
Mean Temperature 50 °F -  
Max Temperature 68 °F 66 °F 81 °F (1979)
Min Temperature 32 °F 29 °F 10 °F (1955)
Degree Days  
Heating Degree Days 15    
Moisture  
Dew Point 21 °F    
Average Humidity 38    
Maximum Humidity 64    
Minimum Humidity 17    
Precipitation  
Precipitation 0.00 in - - ()
Sea Level Pressure  
Sea Level Pressure 30.33 in    
Wind  
Wind Speed 9 mph (NNW)    
Max Wind Speed 15 mph    
Max Gust Speed 20 mph    
Visibility 10 miles    
Events      
Averages and records for this station are not official NWS values.
T = Trace of Precipitation, MM = Missing Value Source: NWS Daily Summary

Daily Weather History Graph

Daily Weather History Graph

Search for Another Location

Airport or City:

Trip Planner

Search our weather history database for the weather conditions in past years. The results will help you decide how hot, cold, wet, or windy it might be!

Date:

Astronomy

Oct. 07, 2013 Rise Set
Actual Time 7:06 AM MDT 6:38 PM MDT
Civil Twilight 6:39 AM MDT 7:04 PM MDT
Nautical Twilight 6:09 AM MDT 7:34 PM MDT
Astronomical Twilight 5:38 AM MDT 8:05 PM MDT
Moon 9:56 AM MDT (10/7) 8:28 PM MDT (10/7)
Length of Visible Light 12h 24m
Length of Day
11h 31m
Waxing Crescent, 9% of the Moon is Illuminated
Oct 7
Waxing Crescent
Oct 11
First Quarter
Oct 18
Full
Oct 26
Last Quarter
Nov 3
New

Hourly Weather History & Observations

Time (MDT) Temp. Windchill Dew Point Humidity Pressure Visibility Wind Dir Wind Speed Gust Speed Precip Events Conditions
12:12 AM 39.2 °F 33.6 °F 21.2 °F 49% 30.40 in 10.0 mi NNW 8.1 mph - N/A   Clear
12:32 AM 39.2 °F 32.5 °F 19.4 °F 45% 30.40 in 10.0 mi NNW 10.4 mph - N/A   Clear
12:51 AM 39.2 °F 32.5 °F 21.2 °F 49% 30.40 in 10.0 mi NNW 10.4 mph - N/A   Clear
1:12 AM 39.2 °F 32.5 °F 21.2 °F 49% 30.40 in 10.0 mi NNW 10.4 mph - N/A   Clear
1:32 AM 39.2 °F 32.5 °F 21.2 °F 49% 30.40 in 10.0 mi NNW 10.4 mph - N/A   Clear
1:52 AM 37.4 °F 29.3 °F 21.2 °F 52% 30.40 in 10.0 mi NNW 12.7 mph - N/A   Clear
2:12 AM 39.2 °F 31.6 °F 21.2 °F 49% 30.40 in 10.0 mi NNW 12.7 mph - N/A   Clear
2:31 AM 37.4 °F 30.8 °F 21.2 °F 52% 30.40 in 10.0 mi NNW 9.2 mph - N/A   Clear
2:52 AM 37.4 °F 29.8 °F 21.2 °F 52% 30.40 in 10.0 mi NNW 11.5 mph - N/A   Clear
3:12 AM 37.4 °F 29.8 °F 21.2 °F 52% 30.40 in 10.0 mi NNW 11.5 mph - N/A   Clear
3:32 AM 37.4 °F 29.8 °F 21.2 °F 52% 30.39 in 10.0 mi NNW 11.5 mph - N/A   Clear
3:52 AM 37.4 °F 30.8 °F 21.2 °F 52% 30.39 in 10.0 mi NNW 9.2 mph - N/A   Clear
4:12 AM 37.4 °F 29.8 °F 21.2 °F 52% 30.40 in 10.0 mi NNW 11.5 mph - N/A   Clear
4:32 AM 35.6 °F 28.6 °F 19.4 °F 52% 30.40 in 10.0 mi North 9.2 mph - N/A   Clear
4:52 AM 33.8 °F 29.6 °F 21.2 °F 60% 30.40 in 10.0 mi NNW 4.6 mph - N/A   Clear
5:11 AM 32.0 °F 25.6 °F 17.6 °F 55% 30.40 in 10.0 mi NNW 6.9 mph - N/A   Clear
5:32 AM 32.0 °F 24.8 °F 19.4 °F 60% 30.40 in 10.0 mi NNW 8.1 mph - N/A   Clear
5:52 AM 32.0 °F 23.0 °F 21.2 °F 64% 30.40 in 10.0 mi NNW 11.5 mph - N/A   Clear
6:12 AM 33.8 °F 26.4 °F 21.2 °F 60% 30.40 in 10.0 mi NNW 9.2 mph 19.6 mph N/A   Clear
6:32 AM 32.0 °F 23.0 °F 21.2 °F 64% 30.40 in 10.0 mi NNW 11.5 mph - N/A   Clear
6:52 AM 33.8 °F 25.8 °F 21.2 °F 60% 30.40 in 10.0 mi NNW 10.4 mph - N/A   Clear
7:12 AM 33.8 °F 24.8 °F 21.2 °F 60% 30.40 in 10.0 mi NNW 12.7 mph - N/A   Clear
7:32 AM 33.8 °F 25.3 °F 21.2 °F 60% 30.40 in 10.0 mi NNW 11.5 mph - N/A   Clear
7:52 AM 35.6 °F 27.1 °F 21.2 °F 56% 30.40 in 10.0 mi NNW 12.7 mph - N/A   Clear
8:12 AM 39.2 °F 33.0 °F 21.2 °F 49% 30.41 in 10.0 mi NNW 9.2 mph 16.1 mph N/A   Clear
8:32 AM 41.0 °F 33.5 °F 21.2 °F 45% 30.41 in 10.0 mi NW 13.8 mph 17.3 mph N/A   Clear
8:52 AM 42.8 °F 35.4 °F 21.2 °F 42% 30.41 in 10.0 mi NW 15.0 mph 19.6 mph N/A   Clear
9:12 AM 44.6 °F 38.8 °F 23.0 °F 43% 30.41 in 10.0 mi NW 11.5 mph - N/A   Clear
9:31 AM 46.4 °F 41.5 °F 23.0 °F 40% 30.41 in 10.0 mi NW 10.4 mph - N/A   Clear
9:52 AM 50.0 °F - 23.0 °F 35% 30.40 in 10.0 mi NW 8.1 mph - N/A   Clear
10:12 AM 51.8 °F - 23.0 °F 33% 30.40 in 10.0 mi NW 4.6 mph - N/A   Clear
10:32 AM 51.8 °F - 23.0 °F 33% 30.40 in 10.0 mi Calm Calm - N/A   Clear
10:52 AM 55.4 °F - 23.0 °F 29% 30.40 in 10.0 mi Calm Calm - N/A   Clear
11:12 AM 55.4 °F - 23.0 °F 29% 30.39 in 10.0 mi South 5.8 mph - N/A   Clear
11:32 AM 57.2 °F - 23.0 °F 27% 30.38 in 10.0 mi South 6.9 mph - N/A   Clear
11:52 AM 57.2 °F - 19.4 °F 23% 30.37 in 10.0 mi SSE 5.8 mph - N/A   Clear
12:12 PM 59.0 °F - 19.4 °F 22% 30.36 in 10.0 mi South 6.9 mph - N/A   Clear
12:32 PM 60.8 °F - 19.4 °F 20% 30.35 in 10.0 mi SSE 6.9 mph - N/A   Clear
12:52 PM 60.8 °F - 19.4 °F 20% 30.34 in 10.0 mi SE 8.1 mph - N/A   Clear
1:12 PM 60.8 °F - 19.4 °F 20% 30.33 in 10.0 mi SE 4.6 mph - N/A   Clear
1:32 PM 62.6 °F - 21.2 °F 20% 30.31 in 10.0 mi South 8.1 mph - N/A   Clear
1:52 PM 62.6 °F - 21.2 °F 20% 30.30 in 10.0 mi SSE 8.1 mph - N/A   Clear
2:12 PM 62.6 °F - 21.2 °F 20% 30.29 in 10.0 mi SSE 10.4 mph - N/A   Clear
2:32 PM 64.4 °F - 21.2 °F 19% 30.29 in 10.0 mi SSE 9.2 mph - N/A   Clear
2:52 PM 64.4 °F - 19.4 °F 18% 30.28 in 10.0 mi ESE 3.5 mph - N/A   Clear
3:12 PM 66.2 °F - 21.2 °F 18% 30.27 in 10.0 mi South 6.9 mph - N/A   Clear
3:32 PM 66.2 °F - 21.2 °F 18% 30.26 in 10.0 mi South 9.2 mph - N/A   Clear
3:52 PM 66.2 °F - 19.4 °F 17% 30.26 in 10.0 mi SSE 5.8 mph - N/A   Clear
4:12 PM 66.2 °F - 19.4 °F 17% 30.25 in 10.0 mi South 6.9 mph - N/A   Clear
4:32 PM 66.2 °F - 19.4 °F 17% 30.24 in 10.0 mi South 6.9 mph - N/A   Clear
4:52 PM 68.0 °F - 21.2 °F 17% 30.23 in 10.0 mi SSE 8.1 mph - N/A   Clear
5:12 PM 66.2 °F - 21.2 °F 18% 30.23 in 10.0 mi South 6.9 mph - N/A   Clear
5:32 PM 64.4 °F - 21.2 °F 19% 30.23 in 10.0 mi SSE 5.8 mph - N/A   Clear
5:52 PM 64.4 °F - 23.0 °F 21% 30.23 in 10.0 mi South 4.6 mph - N/A   Clear
6:12 PM 60.8 °F - 23.0 °F 23% 30.23 in 10.0 mi Calm Calm - N/A   Clear
6:32 PM 59.0 °F - 23.0 °F 25% 30.23 in 10.0 mi SSE 3.5 mph - N/A   Clear
6:52 PM 55.4 °F - 23.0 °F 29% 30.23 in 10.0 mi Calm Calm - N/A   Clear
7:12 PM 50.0 °F - 21.2 °F 32% 30.23 in 10.0 mi NE 4.6 mph - N/A   Clear
7:32 PM 51.8 °F - 21.2 °F 30% 30.23 in 10.0 mi NNE 9.2 mph - N/A   Clear
7:52 PM 51.8 °F - 21.2 °F 30% 30.24 in 10.0 mi NNE 9.2 mph - N/A   Clear
8:12 PM 50.0 °F - 21.2 °F 32% 30.24 in 10.0 mi NNE 9.2 mph - N/A   Clear
8:32 PM 48.2 °F - 21.2 °F 34% 30.24 in 10.0 mi NNW 9.2 mph - N/A   Clear
8:52 PM 48.2 °F - 21.2 °F 34% 30.24 in 10.0 mi NNW 9.2 mph - N/A   Clear
9:12 PM 46.4 °F 43.5 °F 21.2 °F 37% 30.24 in 10.0 mi North 5.8 mph - N/A   Clear
9:32 PM 42.8 °F 40.1 °F 19.4 °F 39% 30.24 in 10.0 mi WNW 4.6 mph - N/A   Clear
9:52 PM 42.8 °F 38.0 °F 21.2 °F 42% 30.24 in 10.0 mi NNW 8.1 mph - N/A   Clear
10:11 PM 42.8 °F 40.1 °F 23.0 °F 46% 30.24 in 10.0 mi North 4.6 mph - N/A   Clear
10:31 PM 41.0 °F 39.0 °F 19.4 °F 42% 30.24 in 10.0 mi NE 3.5 mph - N/A   Clear
10:51 PM 39.2 °F - 19.4 °F 45% 30.24 in 10.0 mi Calm Calm - N/A   Clear
11:12 PM 39.2 °F 34.2 °F 19.4 °F 45% 30.23 in 10.0 mi NW 6.9 mph - N/A   Clear
11:32 PM 41.0 °F 33.9 °F 23.0 °F 49% 30.23 in 10.0 mi NNW 12.7 mph - N/A   Clear
11:52 PM 41.0 °F 35.2 °F 21.2 °F 45% 30.23 in 10.0 mi North 9.2 mph - N/A   Clear